Location: Dattensoll
(49.9928°N, 9.8954°E)
Time: 21:44:19
(UTC+00:00)

Timation 1 Rocket - Pass Details

Date: 19 May 2025
Orbit: 895 x 909 km, 70.0° (Epoch: 15 June)

Event Time Altitude Azimuth Distance (km) Brightness Sun altitude
Exits shadow 21:47:15 25° 182° (S) 1,742 5.3 -17.3°
Maximum altitude 21:50:41 57° 114° (ESE) 1,055 4.4 -17.5°
Drops below altitude 10° 21:56:32 10° 37° (NE) 2,596 7.2 -17.8°
Sets 21:59:05 0° 34° (NNE) 3,543 8.0 -17.9°
